Location: Gull Harbor
(47.1000°N, 122.9000°W)
Time: 23:12:08
(UTC-07:00)

Amateur Radio Satellites - All Passes

Search period start: 30 April 2017 22:42
Search period end: 01 May 2017 22:42
Location: Gull Harbor, 47.1000°N, 122.9000°W

Satellite Date Start Highest point End Downlink Frequencies (MHz)
Time Altitude Azimuth
NO-84 30 Apr 23:02:37 23:05:11 21° 8° (N) 23:07:36 435.350 FM
BEESAT 3 30 Apr 23:12:38 23:14:30 13° 250° (WSW) 23:16:20 437.485
OBJECT BX 30 Apr 23:19:54 23:21:56 14° 269° (W) 23:24:00 145.990 - 145.960
BEESAT 2 30 Apr 23:21:12 23:24:32 25° 245° (WSW) 23:27:52 435.950
QB50P2 30 Apr 23:41:41 23:42:27 10° 87° (E) 23:43:13 145.880/145.840
PRISM 30 Apr 23:52:58 23:56:44 34° 292° (WNW) 00:00:28 437.425
TIGRISAT 30 Apr 23:55:39 23:59:50 53° 288° (WNW) 00:04:04 435.000
UKube-1 30 Apr 23:56:47 23:58:23 12° 57° (ENE) 23:59:59 .
NANOSAT C BR1 30 Apr 23:57:32 23:59:35 13° 89° (E) 00:01:37 145.865
AIST 2D 30 Apr 23:59:21 00:02:21 25° 95° (E) 00:05:21 435.315
VELOX 1 01 May 00:00:47 00:04:57 40° 69° (ENE) 00:09:07 145.980
LO-87 01 May 00:06:22 00:09:26 26° 264° (W) 00:12:33 145.935 - 145.965
50 SAT 01 May 00:08:31 00:11:18 23° 67° (ENE) 00:14:07 437.505
ESTCUBE 1 01 May 00:08:37 00:13:02 55° 260° (W) 00:17:31 437.505/2401.250
UNISAT 6 01 May 00:18:43 00:22:28 30° 293° (WNW) 00:26:17 437.425
FO-29 01 May 00:20:27 00:25:30 52° 291° (WNW) 00:30:54 435.910
DUCHIFAT 1 01 May 00:23:39 00:26:57 22° 93° (E) 00:30:15 145.980
SPROUT 01 May 00:26:28 00:30:40 65° 74° (ENE) 00:34:55 437.525
EO-79 01 May 00:27:14 00:30:56 29° 96° (E) 00:34:36 145.935-145.965
DX 1 01 May 00:36:48 00:40:50 37° 68° (ENE) 00:44:54 434.975-435.025
NO-84 01 May 00:40:08 00:43:11 60° 30° (NNE) 00:46:03 435.350 FM
BUGSAT 1 01 May 01:05:56 01:08:56 20° 93° (E) 01:11:56 437.445
PCSat 01 May 01:07:21 01:11:35 24° 108° (ESE) 01:15:52 145.827
POLYITAN 1 01 May 01:07:40 01:11:53 78° 103° (ESE) 01:16:06 437.675
QB50P2 01 May 01:14:35 01:18:49 82° 286° (WNW) 01:23:02 145.880/145.840
UKube-1 01 May 01:29:24 01:33:44 89° 85° (E) 01:38:06 .
NANOSAT C BR1 01 May 01:31:35 01:35:43 64° 287° (WNW) 01:39:52 145.865
AIST 2D 01 May 01:32:38 01:35:29 23° 292° (WNW) 01:38:21 435.315
VELOX 1 01 May 01:37:55 01:41:31 24° 266° (W) 01:45:09 145.980
50 SAT 01 May 01:41:10 01:44:08 26° 264° (W) 01:47:08 437.505
ITUPSAT 1 01 May 01:47:20 01:50:11 16° 58° (ENE) 01:53:01 437.325
DUCHIFAT 1 01 May 01:58:53 02:02:45 37° 291° (WNW) 02:06:36 145.980
EO-79 01 May 02:03:01 02:06:39 29° 293° (WNW) 02:10:17 145.935-145.965
SPROUT 01 May 02:04:53 02:07:01 14° 271° (W) 02:09:11 437.525
Oscar 19 01 May 02:07:43 02:12:25 33° 96° (E) 02:17:05 437.125/150
DX 1 01 May 02:13:32 02:17:07 25° 266° (W) 02:20:45 434.975-435.025
NO-84 01 May 02:18:27 02:20:18 16° 229° (SW) 02:22:07 435.350 FM
BEESAT 01 May 02:38:56 02:43:25 44° 68° (ENE) 02:47:56 436.000
BUGSAT 1 01 May 02:40:43 02:44:27 38° 291° (WNW) 02:48:11 437.445
POLYITAN 1 01 May 02:45:13 02:47:05 13° 301° (WNW) 02:48:58 437.675
Gurwin Techsat 1B 01 May 02:48:36 02:53:43 46° 99° (E) 02:58:48 435.225
PCSat 01 May 02:49:12 02:54:34 61° 308° (NW) 02:59:58 145.827
QB50P2 01 May 02:53:13 02:53:53 10° 303° (WNW) 02:54:32 145.880/145.840
UKube-1 01 May 03:10:16 03:10:23 10° 273° (W) 03:10:30 .
ITUPSAT 1 01 May 03:22:40 03:27:26 77° 257° (WSW) 03:32:13 437.325
MOZHAYETS 4 01 May 03:25:34 03:30:02 58° 72° (ENE) 03:34:32
YUBILEINY 01 May 03:42:38 03:50:26 39° 85° (E) 03:58:15 435.215
ITAMSAT 1 01 May 03:44:43 03:48:52 24° 93° (E) 03:53:01 435.822/435.867
Oscar 19 01 May 03:47:00 03:51:46 37° 294° (WNW) 03:56:30 437.125/150
BEESAT 01 May 04:17:33 04:21:23 24° 266° (W) 04:25:15 436.000
Gurwin Techsat 1B 01 May 04:28:58 04:33:28 29° 297° (WNW) 04:37:57 435.225
CUBESAT XI-V 01 May 04:29:58 04:34:28 49° 71° (ENE) 04:39:01 437.345
AO-7 01 May 04:35:30 04:43:38 54° 102° (ESE) 04:51:44 .
PCSat 01 May 04:35:37 04:39:06 17° 330° (NNW) 04:42:36 145.827
KKS-1 01 May 04:37:57 04:42:22 62° 72° (ENE) 04:46:47 437.445
STARS 01 May 04:55:38 04:59:47 43° 69° (ENE) 05:03:57 437.465
MOZHAYETS 4 01 May 05:04:39 05:07:35 17° 270° (W) 05:10:33
SO-50 01 May 05:12:51 05:16:26 23° 114° (ESE) 05:20:01 436.795
ITAMSAT 1 01 May 05:23:36 05:28:37 50° 291° (WNW) 05:33:35 435.822/435.867
YUBILEINY 01 May 05:38:32 05:46:58 53° 287° (WNW) 05:55:30 435.215
RS-15 01 May 05:39:19 05:48:20 26° 100° (E) 05:57:29 29.354- 29.394
M-CUBED/EXP-1 PRIME 01 May 05:53:49 05:55:50 13° 51° (NE) 05:57:51 437.505
CUBESAT XI-V 01 May 06:08:36 06:12:06 21° 268° (W) 06:15:39 437.345
XW-2C 01 May 06:15:19 06:16:47 12° 89° (E) 06:18:12 145.795 - 145.815
KKS-1 01 May 06:16:39 06:19:20 15° 270° (W) 06:22:00 437.445
DOVE 4 01 May 06:19:33 06:23:13 24° 92° (E) 06:26:41 437.250
LilacSat-2 01 May 06:19:38 06:21:44 14° 90° (E) 06:23:49 437.200
AO-7 01 May 06:28:36 06:36:14 43° 303° (WNW) 06:43:53 .
NUDT-PHONESAT 01 May 06:32:03 06:34:05 14° 90° (E) 06:36:07 437.300
STARS 01 May 06:32:55 06:36:19 22° 267° (W) 06:39:43 437.465
XW-2F 01 May 06:35:47 06:38:34 19° 93° (E) 06:41:22 145.980 - 146.000
Tancredo 1 01 May 06:43:29 06:45:45 19° 138° (SE) 06:48:00 437.200
SO-50 01 May 06:52:05 06:56:35 54° 312° (NW) 07:01:05 436.795
CUTE-I 01 May 07:08:05 07:13:06 40° 98° (E) 07:18:05 437.470
STRAND 1 01 May 07:08:41 07:13:34 49° 69° (ENE) 07:18:28 437.568
M-CUBED/EXP-1 PRIME 01 May 07:24:50 07:29:30 75° 69° (ENE) 07:34:08 437.505
XW-2D 01 May 07:28:15 07:32:06 81° 103° (ESE) 07:35:56 145.860 - 145.880
KAITUO 1B 01 May 07:32:23 07:36:10 70° 101° (E) 07:39:58 145.475/437.950
XW-2B 01 May 07:35:20 07:39:11 87° 284° (WNW) 07:43:02 145.730 - 145.750
YUBILEINY 01 May 07:42:40 07:46:18 13° 313° (NW) 07:49:58 435.215
ISS 01 May 07:44:21 07:47:30 47° 147° (SSE) 07:50:40 437.550
RS-15 01 May 07:46:52 07:59:00 83° 123° (ESE) 08:11:26 29.354- 29.394
XW-2C 01 May 07:47:35 07:51:22 61° 286° (WNW) 07:55:09 145.795 - 145.815
LilacSat-2 01 May 07:52:34 07:56:19 52° 287° (WNW) 08:00:04 437.200
HO-68 01 May 07:54:01 08:00:17 31° 94° (E) 08:06:30 435.675
DOVE 4 01 May 07:56:51 08:01:05 38° 292° (WNW) 08:05:04 437.250
NUDT-PHONESAT 01 May 08:04:39 08:08:16 48° 288° (WNW) 08:11:53 437.300
PCSat 01 May 08:08:30 08:11:04 13° 23° (NNE) 08:13:37 145.827
XW-2F 01 May 08:09:19 08:12:50 36° 290° (WNW) 08:16:22 145.980 - 146.000
AAUSAT CUBESAT 2 01 May 08:17:26 08:19:21 13° 88° (E) 08:21:15 437.432
Tancredo 1 01 May 08:18:13 08:21:19 78° 337° (NNW) 08:24:25 437.200
AO-7 01 May 08:23:32 08:26:51 13° 326° (NNW) 08:30:10 .
XW-2A 01 May 08:25:34 08:28:49 43° 99° (E) 08:32:03 145.665 - 145.685
SO-50 01 May 08:35:28 08:38:03 15° 334° (NNW) 08:40:37 436.795
CUTE-I 01 May 08:48:23 08:53:02 32° 296° (WNW) 08:57:41 437.470
STRAND 1 01 May 08:48:54 08:53:00 24° 267° (W) 08:57:08 437.568
CUTE 1.7 + AOD 2 01 May 08:49:10 08:53:29 83° 102° (ESE) 08:57:47 437.475
UWE-3 01 May 08:49:20 08:52:50 25° 94° (E) 08:56:24 435.000/436.395/437.385
FO-29 01 May 08:53:26 08:56:48 16° 57° (ENE) 09:00:02 435.910
SEEDS 01 May 08:59:03 09:03:18 70° 101° (E) 09:07:33 437.485
M-CUBED/EXP-1 PRIME 01 May 09:01:41 09:04:22 15° 265° (W) 09:07:03 437.505
XW-2D 01 May 09:04:54 09:05:41 11° 300° (WNW) 09:06:29 145.860 - 145.880
KAITUO 1B 01 May 09:08:17 09:09:40 12° 299° (WNW) 09:11:01 145.475/437.950
PRISM 01 May 09:09:56 09:13:27 27° 66° (ENE) 09:16:58 437.425
CUBEBUG 2 01 May 09:13:17 09:17:28 70° 103° (ESE) 09:21:43 437.445
ISS 01 May 09:20:53 09:24:03 45° 346° (NNW) 09:27:13 437.550
TIGRISAT 01 May 09:21:35 09:24:53 22° 64° (ENE) 09:28:09 435.000
O/OREOS (USA 219) 01 May 09:28:03 09:32:05 31° 105° (ESE) 09:36:09 437.305
ZACube-1 01 May 09:32:24 09:36:26 40° 98° (E) 09:40:32 437.345
AO-73 01 May 09:36:04 09:40:06 40° 98° (E) 09:44:11 145.935
HO-68 01 May 09:41:20 09:48:24 60° 294° (WNW) 09:55:27 435.675
UNISAT 6 01 May 09:43:37 09:47:36 37° 69° (ENE) 09:51:33 437.425
Oscar 11 01 May 09:45:09 09:49:18 42° 98° (E) 09:53:26 .
DELFI C3 01 May 09:48:43 09:50:44 13° 89° (E) 09:52:45 145.870
PCSat 01 May 09:50:51 09:56:00 41° 47° (NE) 10:01:07 145.827
AAUSAT CUBESAT 2 01 May 09:51:05 09:55:16 67° 286° (WNW) 09:59:24 437.432
Tancredo 1 01 May 09:54:36 09:57:29 34° 356° (N) 10:00:21 437.200
XW-2A 01 May 09:59:31 10:01:14 13° 296° (WNW) 10:02:56 145.665 - 145.685
RS-15 01 May 10:01:18 10:12:55 45° 331° (NNW) 10:24:39 29.354- 29.394
UWE-3 01 May 10:25:33 10:29:23 34° 291° (WNW) 10:33:16 435.000/436.395/437.385
CUTE 1.7 + AOD 2 01 May 10:26:49 10:28:41 13° 301° (WNW) 10:30:33 437.475
POLYITAN 1 01 May 10:30:55 10:31:52 11° 57° (ENE) 10:32:47 437.675
FO-29 01 May 10:35:21 10:41:20 88° 255° (WSW) 10:46:46 435.910
SEEDS 01 May 10:36:10 10:38:28 14° 300° (WNW) 10:40:46 437.485
QB50P2 01 May 10:36:39 10:38:40 13° 59° (ENE) 10:40:40 145.880/145.840
AIST 2D 01 May 10:37:23 10:39:34 16° 65° (ENE) 10:41:47 435.315
OBJECT BX 01 May 10:43:47 10:47:15 38° 98° (E) 10:50:42 145.990 - 145.960
PRISM 01 May 10:44:54 10:48:38 32° 263° (W) 10:52:24 437.425
CUBEBUG 2 01 May 10:51:27 10:53:36 14° 299° (WNW) 10:55:45 437.445
NANOSAT C BR1 01 May 10:52:28 10:55:01 16° 61° (ENE) 10:57:34 145.865
AO-85 01 May 10:54:28 10:56:06 12° 111° (ESE) 10:57:40 145.980
TIGRISAT 01 May 10:57:14 11:01:21 42° 262° (W) 11:05:25 435.000
ISS 01 May 10:57:53 11:00:58 36° 6° (N) 11:04:02 437.550
O/OREOS (USA 219) 01 May 11:07:14 11:11:27 34° 305° (NW) 11:15:40 437.305
ZACube-1 01 May 11:09:12 11:12:31 22° 295° (WNW) 11:15:52 437.345
AO-73 01 May 11:12:49 11:16:08 23° 295° (WNW) 11:19:30 145.935
DUCHIFAT 1 01 May 11:18:14 11:21:40 25° 65° (ENE) 11:25:05 145.980
UNISAT 6 01 May 11:20:57 11:24:25 23° 266° (W) 11:27:53 437.425
Oscar 11 01 May 11:21:48 11:25:12 23° 296° (WNW) 11:28:35 .
DELFI C3 01 May 11:21:57 11:25:54 58° 287° (WNW) 11:29:48 145.870
EO-79 01 May 11:22:20 11:26:06 32° 68° (ENE) 11:29:52 145.935-145.965
LO-87 01 May 11:30:23 11:32:58 19° 93° (E) 11:35:33 145.935 - 145.965
Tancredo 1 01 May 11:30:45 11:33:46 47° 16° (NNE) 11:36:46 437.200
HO-68 01 May 11:30:56 11:34:44 15° 315° (NW) 11:38:33 435.675
PCSat 01 May 11:34:23 11:39:23 38° 247° (WSW) 11:44:21 145.827
Oscar 19 01 May 11:52:30 11:54:06 11° 52° (NE) 11:55:42 437.125/150
ESTCUBE 1 01 May 11:58:15 12:02:01 25° 94° (E) 12:05:45 437.505/2401.250
BUGSAT 1 01 May 11:58:27 12:01:38 22° 65° (ENE) 12:04:49 437.445
SO-50 01 May 12:00:40 12:03:03 14° 24° (NNE) 12:05:28 436.795
POLYITAN 1 01 May 12:02:44 12:06:56 85° 76° (ENE) 12:11:10 437.675
AIST 2D 01 May 12:09:15 12:12:31 38° 262° (W) 12:15:48 435.315
QB50P2 01 May 12:09:40 12:13:53 76° 258° (WSW) 12:18:07 145.880/145.840
OBJECT BX 01 May 12:18:09 12:20:41 18° 295° (WNW) 12:23:13 145.990 - 145.960
RS-15 01 May 12:18:30 12:29:28 34° 5° (N) 12:40:15 29.354- 29.394
FO-29 01 May 12:24:25 12:27:06 13° 272° (W) 12:29:41 435.910
NANOSAT C BR1 01 May 12:26:09 12:30:18 59° 259° (W) 12:34:28 145.865
AO-85 01 May 12:31:43 12:35:56 82° 309° (NW) 12:39:57 145.980
ISS 01 May 12:34:26 12:37:42 89° 346° (NNW) 12:40:59 437.550
Gurwin Techsat 1B 01 May 12:35:30 12:38:45 17° 56° (NE) 12:42:02 435.225
DUCHIFAT 1 01 May 12:53:23 12:57:11 34° 263° (W) 13:01:02 145.980
EO-79 01 May 12:58:21 13:01:53 26° 265° (W) 13:05:26 145.935-145.965
50 SAT 01 May 13:01:54 13:04:02 15° 92° (E) 13:06:09 437.505
BEESAT 3 01 May 13:02:55 13:06:42 46° 120° (ESE) 13:10:33 437.485
LO-87 01 May 13:03:18 13:06:30 31° 291° (WNW) 13:09:40 145.935 - 145.965
Tancredo 1 01 May 13:06:42 13:09:37 39° 215° (SW) 13:12:32 437.200
BEESAT 2 01 May 13:14:53 13:18:10 25° 115° (ESE) 13:21:29 435.950
UKube-1 01 May 13:15:24 13:16:57 12° 88° (E) 13:18:28 .
VELOX 1 01 May 13:23:40 13:28:01 51° 100° (E) 13:32:18 145.980
Oscar 19 01 May 13:27:19 13:32:26 65° 71° (ENE) 13:37:36 437.125/150
BUGSAT 1 01 May 13:32:59 13:36:48 37° 262° (W) 13:40:37 437.445
ESTCUBE 1 01 May 13:34:42 13:38:56 39° 292° (WNW) 13:43:09 437.505/2401.250
SO-50 01 May 13:40:10 13:44:35 50° 47° (NE) 13:48:58 436.795
SPROUT 01 May 13:44:42 13:48:59 83° 105° (ESE) 13:53:14 437.525
AO-7 01 May 13:47:40 13:54:06 26° 48° (NE) 14:00:32 .
YUBILEINY 01 May 13:48:21 13:55:06 24° 59° (ENE) 14:01:50 435.215
DX 1 01 May 13:57:35 14:01:47 44° 99° (E) 14:05:56 434.975-435.025
ISS 01 May 14:11:38 14:13:49 17° 223° (SW) 14:15:59 437.550
Gurwin Techsat 1B 01 May 14:12:41 14:18:01 86° 255° (WSW) 14:23:23 435.225
AO-85 01 May 14:14:26 14:16:55 15° 327° (NNW) 14:19:22 145.980
RS-15 01 May 14:33:19 14:45:26 55° 38° (NE) 14:57:02 29.354- 29.394
50 SAT 01 May 14:33:53 14:37:09 37° 289° (WNW) 14:40:22 437.505
BEESAT 3 01 May 14:41:09 14:44:29 25° 320° (NW) 14:47:53 437.485
UKube-1 01 May 14:49:11 14:53:31 77° 286° (WNW) 14:57:49 .
BEESAT 2 01 May 14:51:58 14:55:45 40° 314° (NW) 14:59:35 435.950
VELOX 1 01 May 15:00:55 15:04:07 20° 298° (WNW) 15:07:17 145.980
ITAMSAT 1 01 May 15:05:21 15:10:20 50° 69° (ENE) 15:15:21 435.822/435.867
Oscar 19 01 May 15:08:39 15:12:13 19° 270° (W) 15:15:50 437.125/150
MOZHAYETS 4 01 May 15:19:46 15:21:04 11° 86° (E) 15:22:22
ITUPSAT 1 01 May 15:20:36 15:24:18 22° 93° (E) 15:27:59 437.325
SO-50 01 May 15:21:08 15:24:46 24° 246° (WSW) 15:28:22 436.795
SPROUT 01 May 15:22:32 15:24:16 12° 302° (WNW) 15:26:00 437.525
DX 1 01 May 15:34:22 15:37:41 22° 297° (WNW) 15:41:00 434.975-435.025
AO-7 01 May 15:37:36 15:45:54 89° 68° (ENE) 15:54:15 .
YUBILEINY 01 May 15:44:22 15:53:12 89° 263° (W) 16:02:02 435.215
Gurwin Techsat 1B 01 May 15:56:31 15:58:45 13° 274° (W) 16:01:00 435.225
BEESAT 01 May 16:13:08 16:17:54 68° 102° (ESE) 16:22:40 436.000
UKube-1 01 May 16:28:07 16:28:46 10° 305° (NW) 16:29:26 .
BEESAT 2 01 May 16:33:39 16:34:36 11° 336° (NNW) 16:35:33 435.950
ITAMSAT 1 01 May 16:45:54 16:50:04 24° 267° (W) 16:54:15 435.822/435.867
RS-15 01 May 16:46:23 16:58:19 62° 244° (WSW) 17:09:42 29.354- 29.394
MOZHAYETS 4 01 May 16:54:14 16:58:53 89° 301° (WNW) 17:03:32
CUTE-I 01 May 16:55:53 16:58:55 16° 55° (NE) 17:01:57 437.470
ITUPSAT 1 01 May 16:57:46 17:02:23 49° 290° (WNW) 17:06:59 437.325
LilacSat-2 01 May 17:05:32 17:06:54 12° 60° (ENE) 17:08:17 437.200
NUDT-PHONESAT 01 May 17:15:40 17:16:42 11° 60° (ENE) 17:17:43 437.300
XW-2F 01 May 17:20:18 17:22:30 15° 63° (ENE) 17:24:43 145.980 - 146.000
DOVE 4 01 May 17:26:41 17:31:30 38° 68° (ENE) 17:36:11 437.250
AO-7 01 May 17:33:43 17:39:44 22° 270° (W) 17:45:48 .
NO-84 01 May 17:37:32 17:39:55 16° 131° (SE) 17:42:11 435.350 FM
YUBILEINY 01 May 17:42:44 17:48:46 21° 284° (WNW) 17:54:49 435.215
BEESAT 01 May 17:52:02 17:55:11 18° 301° (WNW) 17:58:20 436.000
O/OREOS (USA 219) 01 May 17:56:09 17:59:03 16° 46° (NE) 18:01:55 437.305
CUBESAT XI-V 01 May 18:00:20 18:05:06 80° 103° (ESE) 18:09:47 437.345
KKS-1 01 May 18:02:05 18:06:33 81° 106° (ESE) 18:10:58 437.445
XW-2D 01 May 18:12:07 18:15:46 58° 74° (ENE) 18:19:30 145.860 - 145.880
CUTE 1.7 + AOD 2 01 May 18:12:31 18:13:25 11° 57° (ENE) 18:14:19 437.475
KAITUO 1B 01 May 18:15:05 18:18:38 48° 73° (ENE) 18:22:15 145.475/437.950
STARS 01 May 18:17:46 18:22:03 53° 100° (E) 18:26:18 437.465
XW-2B 01 May 18:19:10 18:22:53 68° 75° (ENE) 18:26:38 145.730 - 145.750
HO-68 01 May 18:26:08 18:32:20 33° 58° (ENE) 18:38:34 435.675
XW-2C 01 May 18:31:21 18:35:05 85° 255° (WSW) 18:38:53 145.795 - 145.815
CUTE-I 01 May 18:32:52 18:38:12 87° 75° (ENE) 18:43:35 437.470
MOZHAYETS 4 01 May 18:33:16 18:35:21 13° 303° (WNW) 18:37:25
LilacSat-2 01 May 18:36:54 18:40:38 69° 258° (WSW) 18:44:26 437.200
CUBEBUG 2 01 May 18:42:01 18:42:23 10° 58° (ENE) 18:42:46 437.445
NUDT-PHONESAT 01 May 18:46:25 18:50:04 71° 258° (WSW) 18:53:45 437.300
XW-2F 01 May 18:52:39 18:56:16 48° 261° (W) 18:59:55 145.980 - 146.000
XW-2A 01 May 19:00:01 19:02:46 24° 68° (ENE) 19:05:33 145.665 - 145.685
RS-15 01 May 19:02:18 19:07:55 15° 268° (W) 19:13:28 29.354- 29.394
DOVE 4 01 May 19:04:31 19:09:12 32° 265° (W) 19:13:46 437.250
AAUSAT CUBESAT 2 01 May 19:10:40 19:12:48 14° 60° (ENE) 19:14:57 437.432
NO-84 01 May 19:13:21 19:17:08 87° 326° (NW) 19:20:34 435.350 FM
STRAND 1 01 May 19:17:48 19:20:01 13° 87° (E) 19:22:15 437.568
AO-85 01 May 19:19:52 19:23:20 28° 42° (NE) 19:26:53 145.980
O/OREOS (USA 219) 01 May 19:34:29 19:39:05 82° 246° (WSW) 19:43:38 437.305
CUBESAT XI-V 01 May 19:39:11 19:41:50 15° 302° (WNW) 19:44:28 437.345
BEESAT 3 01 May 19:40:07 19:42:33 15° 31° (NNE) 19:44:56 437.485
KKS-1 01 May 19:40:18 19:42:29 14° 302° (WNW) 19:44:40 437.445
CUTE 1.7 + AOD 2 01 May 19:44:17 19:48:31 83° 76° (ENE) 19:52:48 437.475
XW-2D 01 May 19:48:54 19:50:21 12° 271° (W) 19:51:49 145.860 - 145.880
UWE-3 01 May 19:49:17 19:52:53 28° 67° (ENE) 19:56:28 435.000/436.395/437.385
KAITUO 1B 01 May 19:51:00 19:52:57 14° 270° (W) 19:54:55 145.475/437.950
BEESAT 2 01 May 19:52:50 19:54:06 11° 25° (NNE) 19:55:23 435.950
SEEDS 01 May 19:53:11 19:57:20 69° 74° (ENE) 20:01:34 437.485
STARS 01 May 19:54:58 19:58:02 19° 299° (WNW) 20:01:04 437.465
XW-2B 01 May 19:57:06 19:57:32 10° 272° (W) 19:57:59 145.730 - 145.750
HO-68 01 May 20:12:40 20:19:42 60° 258° (WSW) 20:26:48 435.675
CUBEBUG 2 01 May 20:14:03 20:18:19 83° 75° (ENE) 20:22:31 437.445
CUTE-I 01 May 20:16:14 20:18:58 14° 272° (W) 20:21:42 437.470
ZACube-1 01 May 20:31:02 20:34:58 44° 71° (ENE) 20:38:56 437.345
XW-2A 01 May 20:32:51 20:35:30 22° 265° (W) 20:38:10 145.665 - 145.685
AO-73 01 May 20:34:23 20:38:19 43° 71° (ENE) 20:42:15 145.935
M-CUBED/EXP-1 PRIME 01 May 20:35:51 20:39:27 30° 100° (E) 20:42:47 437.505
DELFI C3 01 May 20:37:33 20:39:27 13° 60° (ENE) 20:41:19 145.870
Oscar 11 01 May 20:42:33 20:46:40 46° 70° (ENE) 20:50:49 .
AAUSAT CUBESAT 2 01 May 20:43:34 20:47:43 70° 258° (WSW) 20:51:54 437.432
NO-84 01 May 20:51:59 20:54:59 25° 344° (NNW) 20:57:48 435.350 FM
STRAND 1 01 May 20:54:46 20:59:55 90° 283° (WNW) 21:05:02 437.568
AO-85 01 May 21:00:06 21:03:47 37° 240° (WSW) 21:07:36 145.980
BEESAT 3 01 May 21:16:46 21:20:49 75° 53° (NE) 21:24:48 437.485
CUTE 1.7 + AOD 2 01 May 21:24:15 21:24:57 10° 274° (W) 21:25:39 437.475
OBJECT BX 01 May 21:24:36 21:27:40 26° 68° (ENE) 21:30:46 145.990 - 145.960
UWE-3 01 May 21:25:39 21:29:19 29° 265° (W) 21:32:58 435.000/436.395/437.385
BEESAT 2 01 May 21:29:00 21:32:54 43° 46° (NE) 21:36:47 435.950
SEEDS 01 May 21:31:39 21:33:31 13° 272° (W) 21:35:22 437.485
CUBEBUG 2 01 May 21:54:57 21:55:30 10° 273° (W) 21:56:03 437.445
HO-68 01 May 22:07:41 22:08:57 10° 278° (W) 22:10:13 435.675
ZACube-1 01 May 22:08:36 22:11:30 18° 268° (W) 22:14:24 437.345
DELFI C3 01 May 22:09:42 22:13:41 69° 259° (WSW) 22:17:42 145.870
LO-87 01 May 22:10:08 22:12:05 14° 63° (ENE) 22:14:01 145.935 - 145.965
M-CUBED/EXP-1 PRIME 01 May 22:10:20 22:13:49 27° 301° (WNW) 22:17:04 437.505
AO-73 01 May 22:11:52 22:14:47 18° 268° (W) 22:17:42 145.935
Oscar 11 01 May 22:19:56 22:23:02 19° 268° (W) 22:26:10 .
PRISM 01 May 22:22:57 22:26:30 27° 95° (E) 22:30:00 437.425
NO-84 01 May 22:30:44 22:33:17 20° 6° (N) 22:35:43 435.350 FM
STRAND 1 01 May 22:35:33 22:38:23 15° 304° (NW) 22:41:13 437.568
